Theta_e
298 299 300 300 298 298 297 298 297 297 298 297 297 296 296 295 293 293 291 290 289 289 288 289 289 288 288 288 287 287 287 287 288 293 299 300 300 299 299 300 301 302 303 303
300 301 300 299 298 298 298 298 300 299 298 298 297 295 296 295 294 292 291 290 289 289 288 288 289 289 288 287 287 287 286 286 286 287 287 293 296 297 296 296 299 299 300 301
299 301 300 299 299 301 300 299 300 299 299 297 296 296 297 296 294 291 290 289 289 288 288 287 288 288 288 287 287 286 286 286 287 289 288 287 287 288 288 290 294 297 298 299
300 299 299 300 301 299 301 300 300 300 297 297 295 297 296 295 293 290 289 288 288 287 287 287 287 288 288 288 287 287 287 292 294 295 291 287 285 285 285 285 286 290 296 297
300 300 300 301 302 300 301 300 300 300 299 297 298 296 294 294 294 291 289 288 287 286 286 287 288 288 288 288 288 288 290 293 293 294 294 293 289 286 285 285 285 285 287 295
299 298 299 300 299 299 296 294 295 294 295 292 297 294 293 296 295 292 290 288 287 286 286 287 288 288 288 288 289 288 289 290 291 291 291 291 290 290 286 285 284 284 285 286
299 299 299 299 300 298 295 295 292 294 291 294 292 296 294 293 290 291 290 288 286 285 285 285 285 287 287 288 288 288 289 290 287 287 288 287 286 285 284 283 283 283 284 285
297 300 299 298 298 298 298 295 295 292 293 293 294 295 295 290 289 289 289 288 286 285 284 285 286 286 287 287 288 289 287 286 285 285 285 286 286 286 286 284 283 283 283 283
295 299 296 296 296 295 299 295 292 287 280 290 293 294 293 290 289 288 286 286 284 284 285 285 285 287 288 288 286 285 285 284 284 283 284 284 284 284 284 285 284 283 282 283
295 298 296 296 295 296 297 295 296 290 289 288 291 292 295 292 290 287 286 285 284 284 284 284 285 285 285 284 284 284 283 282 282 282 283 283 283 282 282 283 284 284 283 283
294 296 297 296 295 297 296 294 293 292 291 290 289 292 290 293 290 287 286 285 284 284 283 283 283 283 282 282 281 281 281 281 281 281 281 281 281 281 282 282 282 283 284 283
295 294 294 296 293 291 295 295 292 291 290 288 289 292 291 288 287 285 285 285 284 285 283 283 282 281 280 280 280 279 280 280 279 278 279 279 279 280 280 280 281 282 283 283
295 291 287 292 291 291 294 294 290 284 285 290 290 292 288 287 286 285 284 285 285 284 282 282 282 280 279 278 278 278 278 278 277 278 278 277 278 278 278 279 280 280 282 282
294 288 291 296 294 291 293 294 290 288 286 286 291 286 288 288 286 284 284 284 283 283 283 282 280 280 278 277 276 276 276 276 276 276 276 277 276 276 277 278 279 279 280 281
293 290 285 285 288 291 292 292 291 290 289 292 290 290 288 288 285 281 283 284 284 283 282 281 280 279 278 276 275 275 275 274 274 274 275 275 275 276 276 277 278 279 279 280
287 290 288 288 287 286 290 290 292 293 287 286 285 288 287 284 282 282 284 284 284 281 280 279 278 278 278 274 274 273 273 273 272 273 273 273 274 274 275 275 275 277 279 279
289 286 288 287 284 284 287 289 291 290 287 291 290 293 284 282 284 281 280 280 280 277 276 277 276 275 275 273 272 272 272 271 271 270 270 270 271 271 272 273 274 274 276 278
288 289 289 284 284 290 294 286 288 291 290 286 284 282 284 278 282 280 278 278 277 275 272 274 275 274 273 272 271 271 270 269 269 269 269 268 268 268 269 271 272 272 273 274
285 289 286 290 287 290 290 285 286 288 289 288 289 284 282 280 282 282 279 274 272 272 274 273 273 272 271 271 270 269 269 268 267 267 267 266 266 266 267 269 270 271 271 272
285 287 295 280 293 291 290 285 284 287 290 286 287 283 281 281 283 282 277 274 272 273 273 273 272 271 270 269 269 269 268 267 267 267 266 266 266 266 266 267 267 268 269 270
286 288 292 290 293 288 287 284 284 291 294 283 285 283 282 282 282 274 272 272 273 272 272 271 270 269 269 269 269 268 267 266 266 266 266 266 266 265 265 265 266 267 268 269
290 291 290 285 290 294 284 284 289 289 283 283 283 282 282 278 275 274 272 270 270 270 270 269 269 268 268 268 268 267 266 266 266 266 266 266 266 265 265 265 265 266 267 267
292 292 291 291 292 284 286 284 282 279 283 282 282 280 280 277 275 273 272 271 270 269 269 269 268 268 268 267 267 266 266 266 266 266 266 266 265 265 264 264 265 265 265 266
284 279 288 289 287 284 285 278 277 279 280 279 280 279 278 278 275 273 272 271 270 269 269 268 268 267 267 267 267 266 266 266 266 267 266 266 265 265 264 264 264 264 265 265
284 284 284 284 284 283 283 283 280 279 278 277 275 276 277 276 275 273 272 271 270 269 268 268 267 267 267 267 267 266 266 267 267 267 266 265 265 265 265 264 264 264 265 267
281 285 288 291 287 287 287 284 280 279 279 278 276 273 274 275 273 272 271 270 269 268 268 267 267 266 267 267 267 267 267 267 267 267 267 266 266 265 265 264 264 264 265 266
Wind_Speed
4 7 4 1 3 4 7 5 5 1 2 4 5 5 4 4 6 7 6 6 6 6 11 18 21 24 28 32 34 35 38 40 42 41 36 27 27 31 35 36 30 30 25 21
6 4 3 4 5 6 5 6 2 2 3 1 5 4 3 4 3 3 5 6 7 6 10 19 21 22 25 26 29 31 33 37 39 41 40 27 23 22 25 30 37 34 28 23
5 5 4 3 2 5 3 5 4 3 1 3 3 3 2 2 2 6 7 4 4 5 7 12 18 18 19 23 25 26 29 33 37 40 40 40 35 31 36 40 33 35 33 29
6 1 4 4 2 2 3 2 5 4 3 2 2 3 4 3 5 8 8 7 7 8 7 11 16 16 15 16 17 19 23 29 33 34 36 36 34 24 27 33 33 30 31 33
2 4 4 3 3 0 4 2 4 3 3 2 4 3 3 3 3 5 6 7 7 7 6 12 19 12 10 11 13 14 17 24 28 27 28 29 30 31 32 34 35 34 32 26
3 1 2 3 2 3 7 5 6 4 2 2 2 3 3 4 4 3 2 5 6 7 9 18 20 19 8 8 10 12 16 25 27 24 24 25 26 28 31 34 36 35 33 33
2 2 1 1 4 2 1 4 3 4 4 4 3 1 6 4 5 5 1 4 6 6 6 10 15 21 12 11 12 14 18 23 24 25 24 25 25 25 26 28 30 32 34 33
6 3 4 1 0 4 3 4 5 6 2 3 3 5 4 5 5 3 1 3 5 6 6 9 17 18 14 12 13 17 20 22 24 24 23 23 24 24 24 26 27 28 29 31
5 2 0 2 1 2 3 2 3 7 2 3 2 5 2 3 4 3 4 4 5 5 7 10 16 18 18 16 18 18 20 21 23 24 23 23 23 24 24 23 23 26 27 29
6 4 0 2 2 4 2 5 3 3 2 4 4 5 5 12 12 6 5 4 4 6 7 11 15 18 18 18 18 19 21 22 23 24 24 23 23 24 23 23 23 24 26 28
4 4 1 2 5 7 1 1 4 4 4 5 2 6 6 15 11 8 5 3 3 4 4 5 12 17 18 19 21 22 23 24 25 25 24 25 26 27 28 28 27 24 23 26
3 5 3 5 1 0 1 4 5 4 5 1 3 6 2 7 8 6 5 2 4 4 2 5 12 16 19 21 22 22 22 22 23 23 23 24 25 27 29 29 29 29 26 23
7 1 3 6 3 1 5 5 4 4 3 6 6 5 3 5 5 5 5 4 3 4 3 5 10 14 15 17 19 21 21 20 22 23 24 25 27 28 29 28 28 28 29 28
7 3 7 8 4 4 6 7 6 6 4 5 7 4 7 10 10 7 6 5 5 4 3 4 9 10 11 12 16 18 19 19 21 23 24 25 26 27 27 27 27 27 26 27
5 5 3 2 2 1 3 7 13 10 8 8 5 11 8 16 15 8 7 7 8 5 3 4 5 5 7 10 13 16 18 20 21 23 24 24 25 25 25 25 25 26 26 25
1 3 3 1 2 2 4 7 11 14 3 9 3 12 7 3 6 7 9 8 8 5 4 3 2 4 5 9 11 16 19 21 22 24 23 24 26 26 26 27 26 24 24 25
6 6 3 5 2 3 7 14 16 7 6 9 8 13 8 5 9 11 10 8 8 7 5 3 2 3 4 7 11 17 21 23 23 22 21 23 25 26 26 26 26 26 23 23
6 6 2 3 1 5 2 2 2 15 6 13 4 4 10 6 4 6 6 9 9 7 5 5 2 2 3 8 13 19 20 18 17 18 21 23 24 25 25 24 24 24 24 22
1 5 2 4 4 9 8 6 8 9 10 21 21 7 5 5 4 4 9 8 7 11 9 5 4 1 5 11 14 14 14 13 17 21 22 23 24 25 23 22 22 22 23 23
2 3 3 3 6 9 5 4 5 5 8 10 20 13 11 8 3 5 11 14 14 12 9 9 4 2 7 8 9 11 11 15 18 21 22 22 22 22 21 21 22 21 20 20
4 2 10 5 5 8 6 7 5 6 7 6 16 15 14 7 5 4 14 10 14 13 12 7 3 1 2 5 7 9 10 15 16 18 20 21 21 21 19 21 20 20 20 20
10 10 5 3 4 18 10 6 10 5 2 7 8 11 11 7 9 10 9 13 16 16 14 8 5 2 1 3 5 8 9 12 14 17 19 20 21 19 19 19 18 17 17 17
6 8 7 12 8 0 23 4 5 3 5 7 8 7 11 11 8 11 9 14 15 16 12 9 5 2 1 2 3 6 9 11 14 16 19 20 21 19 18 17 16 16 16 15
5 3 3 4 6 7 19 1 2 5 4 4 4 9 10 11 11 10 10 13 14 15 13 10 6 4 3 2 2 5 6 9 12 15 17 18 20 20 19 16 13 14 16 15
3 12 7 5 3 2 8 14 7 5 5 5 5 6 10 10 10 11 8 14 15 16 13 11 9 7 6 4 3 3 4 7 10 12 15 17 18 20 20 17 15 14 13 16
6 7 8 9 8 6 6 17 14 13 11 12 10 7 9 13 10 13 12 18 20 18 16 13 11 10 7 6 4 2 3 6 9 11 14 16 17 18 20 21 23 17 13 14
Wind_Direction
11 69 93 65 8 84 103 100 111 49 4 24 59 97 29 7 36 39 36 31 19 29 15 31 29 26 28 33 34 35 35 33 32 31 27 24 19 12 21 25 21 17 14 9
35 98 154 101 60 87 83 115 85 53 358 115 44 92 92 36 32 13 26 24 15 1 2 17 22 23 27 29 32 34 37 38 38 37 35 28 16 12 8 14 23 21 18 14
118 146 137 96 85 91 37 129 156 132 25 73 105 98 115 73 77 38 32 7 9 0 353 359 8 15 20 29 31 34 41 42 39 35 30 30 27 21 15 14 18 20 17 17
91 45 125 116 124 139 146 129 108 114 110 190 25 223 214 178 57 38 18 12 359 355 356 353 357 2 10 25 32 38 44 43 34 31 30 31 32 23 10 13 15 14 19 14
191 136 132 123 168 146 158 88 88 80 89 65 357 74 231 207 91 30 5 2 356 358 2 1 2 342 357 19 31 34 38 31 24 29 31 30 28 21 13 13 13 15 17 20
108 60 72 132 83 68 149 79 58 54 72 38 273 109 232 190 168 123 333 344 347 343 347 7 8 10 354 22 27 26 21 14 12 18 23 23 24 24 11 9 11 11 11 18
45 1 354 118 97 82 118 87 0 358 10 211 347 8 257 159 141 145 157 336 332 328 345 333 351 3 14 22 21 16 10 6 14 19 20 17 15 14 17 11 9 10 11 13
148 286 176 42 187 175 182 158 152 214 208 259 331 240 282 172 148 111 257 286 310 315 300 345 3 16 34 39 31 12 12 19 19 18 19 17 12 9 10 9 9 10 12 13
141 133 105 66 76 77 197 93 138 103 57 43 243 290 214 187 201 196 238 254 287 298 11 1 20 48 51 40 32 24 24 20 19 16 17 18 15 10 7 4 6 6 9 11
196 102 222 143 116 41 181 143 87 7 117 274 284 273 234 206 215 199 215 244 277 31 17 9 40 50 50 43 33 29 28 25 22 21 24 24 23 21 16 10 6 4 5 8
140 97 224 125 203 175 149 74 51 109 130 175 230 256 212 207 181 187 199 217 75 62 34 22 53 56 51 43 34 29 26 24 24 23 24 26 26 26 24 21 15 6 1 4
179 122 158 205 215 207 269 193 156 132 223 157 144 268 307 153 150 166 191 173 112 107 78 66 61 52 46 39 32 27 24 23 20 18 21 22 22 23 22 20 19 14 8 3
185 213 56 353 0 345 213 194 120 110 89 195 143 259 115 126 158 200 194 164 156 125 98 70 61 52 46 38 30 26 23 19 14 12 12 13 15 15 15 14 13 14 13 9
97 102 169 194 169 136 193 178 172 139 134 174 228 246 210 213 208 200 201 181 155 144 128 86 60 55 50 42 29 20 17 12 6 4 5 5 5 5 5 4 6 9 11 10
129 200 137 263 299 284 220 182 183 196 181 181 223 211 192 210 206 202 191 178 170 174 129 71 65 55 44 32 20 14 8 1 355 353 353 354 352 352 353 357 359 358 2 6
178 197 143 229 2 53 262 233 205 218 229 272 165 269 191 146 121 173 192 180 178 191 163 116 75 47 46 19 1 355 352 347 342 339 341 342 341 342 345 346 351 351 352 355
160 137 124 253 0 343 299 214 207 194 200 203 208 237 162 184 192 194 189 188 188 187 182 175 146 78 56 7 350 343 340 333 331 334 336 337 336 336 339 340 341 345 349 348
155 129 87 169 13 270 259 26 230 218 212 214 261 202 181 188 171 174 186 179 191 185 188 193 152 113 6 344 336 335 337 340 342 344 346 345 341 336 334 336 339 340 343 347
160 138 135 167 203 313 267 196 176 173 256 210 223 177 157 126 92 249 186 174 179 186 172 163 152 101 336 335 337 347 352 354 352 359 359 354 348 343 341 340 340 341 340 341
125 62 168 131 202 222 248 151 153 139 282 204 195 169 153 141 165 238 165 158 163 167 165 162 156 312 323 335 348 359 357 351 0 0 356 354 353 351 349 347 343 340 341 338
135 108 203 179 228 280 221 162 158 120 238 156 174 160 156 182 189 146 132 144 167 162 160 168 180 296 351 348 351 357 347 350 359 1 0 0 3 359 353 344 349 344 338 335
165 159 183 118 212 254 148 86 176 199 25 147 150 158 171 126 127 139 149 154 163 158 161 172 179 161 115 358 354 346 332 349 1 5 5 8 10 3 352 350 346 347 346 342
203 191 174 190 207 209 178 180 192 157 155 176 147 153 148 140 160 161 167 164 171 169 169 174 175 167 197 348 354 320 332 353 1 7 12 15 15 9 5 353 350 350 354 353
253 156 179 123 207 198 207 252 221 185 186 136 124 138 150 158 154 165 158 166 165 164 172 178 185 192 205 268 303 313 340 357 6 13 17 17 15 12 10 5 355 352 349 345
187 146 163 272 236 29 255 218 178 181 142 119 94 137 156 140 164 164 161 166 167 171 179 186 194 202 204 228 258 300 346 2 10 17 21 18 16 15 10 9 3 349 345 339
198 166 181 218 186 177 209 196 173 170 180 168 143 129 150 156 156 161 158 171 173 176 183 191 205 208 204 220 232 257 346 6 8 17 19 15 12 13 12 6 2 10 353 348